Location: Katowice
(50.2611°N, 19.0242°E)
Time: 06:32:47
(UTC+02:00)

A-11 Canister half - Pass Details

Date: 27 July 2019
Orbit: 1526 x 1683 km, 47.3° (Epoch: 19 August)

Event Time Altitude Azimuth Distance (km) Brightness Sun altitude
Rises 19:57:38 0° 230° (SW) 4,925 12.0 4.5°
Reaches altitude 10° 20:00:53 10° 226° (SW) 3,933 11.5 4.0°
Maximum altitude 20:10:34 54° 153° (SSE) 1,949 9.4 2.6°
Drops below altitude 10° 20:20:03 10° 80° (E) 3,853 10.7 1.3°
Sets 20:23:12 0° 76° (ENE) 4,819 11.2 0.8°
